Location: Firdgum
(53.2488°N, 5.5615°E)
Time: 20:02:51
(UTC+00:00)

STARLINK 1056 - Pass Details

Date: 08 December 2019
Orbit: 549 x 550 km, 53.0° (Epoch: 28 January)

Event Time Altitude Azimuth Distance (km) Brightness Sun altitude
Exits shadow 03:34:57 14° 99° (E) 1,566 6.6 -35.0°
Drops below altitude 10° 03:35:37 10° 98° (E) 1,830 7.0 -34.9°
Enters shadow 04:35:19 -63° 291° (WNW) 12,004 10.4 -26.0°
Sets 05:17:08 0° 129° (SE) 2,717 8.3 -19.8°
